Weather History for LTAU - December, 2012

Change the Weather History Date:

Sunday, December 23, 2012

  Actual Average Record
Temperature  
Mean Temperature 36 °F -  
Max Temperature 44 °F 39 °F 53 °F (2011)
Min Temperature 27 °F 20 °F -11 °F (2002)
Degree Days  
Heating Degree Days 30    
Moisture  
Dew Point 35 °F    
Average Humidity 91    
Maximum Humidity 100    
Minimum Humidity 68    
Precipitation  
Precipitation 0.04 in - - ()
Sea Level Pressure  
Sea Level Pressure 30.04 in    
Wind  
Wind Speed 1 mph ()    
Max Wind Speed 5 mph    
Max Gust Speed -    
Visibility 1.8 miles    
Events Fog , Rain    
Averages and records for this station are not official NWS values.
T = Trace of Precipitation, MM = Missing Value Source: Averaged Metar Reports

Daily Weather History Graph

Daily Weather History Graph

Search for Another Location

Airport or City:

Trip Planner

Search our weather history database for the weather conditions in past years. The results will help you decide how hot, cold, wet, or windy it might be!

Date:

Astronomy

Dec. 23, 2012 Rise Set
Actual Time 6:53 AM EET 4:20 PM EET
Civil Twilight 6:23 AM EET 4:50 PM EET
Nautical Twilight 5:50 AM EET 5:24 PM EET
Astronomical Twilight 5:17 AM EET 5:56 PM EET
Moon 12:58 PM EET (12/23) 2:17 AM EET (12/23)
Length of Visible Light 10h 27m
Length of Day
9h 27m
Waxing Gibbous, 79% of the Moon is Illuminated
Dec 23
Waxing Gibbous
Dec 28
Full
Jan 5
Last Quarter
Jan 11
New
Jan 19
First Quarter

Hourly Weather History & Observations

Time (EET) Temp. Windchill Dew Point Humidity Pressure Visibility Wind Dir Wind Speed Gust Speed Precip Events Conditions
12:20 AM 32.0 °F - 30.2 °F 93% 30.04 in - Calm Calm - N/A   Mostly Cloudy
12:50 AM 32.0 °F - 32.0 °F 100% 30.04 in - Variable 1.2 mph - N/A   Mostly Cloudy
1:20 AM 32.0 °F - 30.2 °F 93% 30.04 in - Calm Calm - N/A   Mostly Cloudy
1:50 AM 32.0 °F - 30.2 °F 93% 30.04 in - Calm Calm - N/A   Mostly Cloudy
2:00 AM 32 °F - 31 °F 94%  in 2 mi Calm Calm - -   Mist
2:20 AM 33.8 °F - 32.0 °F 93% 30.04 in - Calm Calm - N/A   Mostly Cloudy
2:50 AM 32.0 °F - 30.2 °F 93% 30.04 in 2.2 mi NNW 1.2 mph - N/A   Mostly Cloudy
3:20 AM 30.2 °F - 28.4 °F 93% 30.04 in - NNE 1.2 mph - N/A   Mostly Cloudy
3:50 AM 30.2 °F 26.7 °F 28.4 °F 93% 30.04 in 1.2 mi NE 3.5 mph - N/A   Mostly Cloudy
4:20 AM 30.2 °F - 30.2 °F 100% 30.04 in 1.1 mi Variable 1.2 mph - N/A   Mostly Cloudy
4:50 AM 28.4 °F - 28.4 °F 100% 30.04 in 1.2 mi Calm Calm - N/A   Mostly Cloudy
5:20 AM 28.4 °F - 28.4 °F 100% 30.04 in 1.3 mi Calm Calm - N/A   Mostly Cloudy
5:50 AM 28.4 °F - 26.6 °F 93% 30.04 in 1.2 mi Variable 1.2 mph - N/A   Mostly Cloudy
6:20 AM 28.4 °F - 28.4 °F 100% 30.04 in 0.8 mi Calm Calm - N/A   Mostly Cloudy
6:50 AM 30.2 °F - 28.4 °F 93% 30.06 in 0.9 mi Calm Calm - N/A   Mostly Cloudy
7:20 AM 30.2 °F - 30.2 °F 100% 30.06 in 0.7 mi Calm Calm - N/A   Mostly Cloudy
7:50 AM 32.0 °F - 30.2 °F 93% 30.06 in 0.6 mi Calm Calm - N/A   Mostly Cloudy
8:00 AM 32 °F - 31 °F 93%  in 1 mi Calm Calm - -   Mist
8:20 AM 33.8 °F - 32.0 °F 93% 30.06 in 0.6 mi Calm Calm - N/A Rain Light Rain
8:50 AM 33.8 °F - 33.8 °F 100% 30.06 in 0.7 mi Calm Calm - N/A   Overcast
9:20 AM 35.6 °F - 33.8 °F 93% 30.06 in 0.7 mi Calm Calm - N/A Rain Light Rain
9:50 AM 35.6 °F - 33.8 °F 93% 30.06 in 0.7 mi Calm Calm - N/A Rain Light Rain
10:20 AM 37.4 °F - 35.6 °F 93% 30.06 in 0.7 mi Calm Calm - N/A Rain Light Rain
10:50 AM 37.4 °F - 35.6 °F 93% 30.06 in 0.9 mi Calm Calm - N/A Rain Light Rain
11:20 AM 39.2 °F - 35.6 °F 87% 30.04 in 1.1 mi Calm Calm - N/A Rain Light Rain
11:50 AM 39.2 °F 35.9 °F 35.6 °F 87% 30.04 in - North 4.6 mph - N/A   Mostly Cloudy
12:20 PM 42.8 °F - 37.4 °F 81% 30.01 in 2.2 mi Variable 1.2 mph - N/A   Mostly Cloudy
12:50 PM 42.8 °F 41.1 °F 37.4 °F 81% 30.01 in - SSW 3.5 mph - N/A   Mostly Cloudy
1:20 PM 44.6 °F - 37.4 °F 76% 30.01 in 2.5 mi SSE 2.3 mph - N/A   Mostly Cloudy
1:50 PM 44.6 °F - 37.4 °F 76% 30.01 in 2.2 mi SSE 2.3 mph - N/A   Mostly Cloudy
2:00 PM 44 °F - 37 °F 68%  in 2 mi SSE 2.3 mph - -   Mist
2:20 PM 44.6 °F - 37.4 °F 76% 30.01 in - Calm Calm - N/A   Mostly Cloudy
2:50 PM 44.6 °F - 37.4 °F 76% 30.01 in 3.7 mi Calm Calm - N/A   Overcast
3:20 PM 44.6 °F - 37.4 °F 76% 30.01 in 3.7 mi Calm Calm - N/A Rain Light Rain
3:50 PM 42.8 °F - 39.2 °F 87% 30.01 in 1.6 mi Calm Calm - N/A Rain Light Rain
4:20 PM 42.8 °F - 39.2 °F 87% 30.01 in 1.5 mi Calm Calm - N/A Rain Light Rain
4:50 PM 41.0 °F - 39.2 °F 93% 30.01 in 1.4 mi Calm Calm - N/A Rain Light Rain
5:20 PM 41.0 °F - 39.2 °F 93% 30.01 in 1.4 mi Calm Calm - N/A Rain Light Rain
5:50 PM 41.0 °F - 39.2 °F 93% 30.01 in 1.8 mi Calm Calm - N/A Rain Light Rain
6:20 PM 41.0 °F - 39.2 °F 93% 30.01 in 2.8 mi Calm Calm - N/A Rain Light Rain
6:50 PM 41.0 °F - 37.4 °F 87% 30.04 in 5.0 mi Calm Calm - N/A Rain Light Rain
7:20 PM 41.0 °F - 37.4 °F 87% 30.04 in 4.3 mi Calm Calm - N/A Rain Light Rain
7:50 PM 39.2 °F - 39.2 °F 100% 30.04 in 3.7 mi Calm Calm - N/A Rain Light Rain
8:00 PM 40 °F - 38 °F 92%  in 4 mi NE 1.2 mph - - Rain Light Rain
8:20 PM 41.0 °F - 39.2 °F 93% 30.04 in 3.7 mi Calm Calm - N/A   Overcast
8:50 PM 39.2 °F - 39.2 °F 100% 30.04 in 3.7 mi Calm Calm - N/A Rain Rain
9:20 PM 39.2 °F - 39.2 °F 100% 30.04 in 1.6 mi Calm Calm - N/A Rain Light Rain
9:50 PM 39.2 °F - 39.2 °F 100% 30.04 in 1.0 mi Calm Calm - N/A Fog , Rain Light Rain
10:20 PM 41.0 °F - 39.2 °F 93% 30.04 in 1.0 mi Calm Calm - N/A Fog , Rain Light Rain
10:50 PM 39.2 °F - 39.2 °F 100% 30.04 in 1.0 mi NW 2.3 mph - N/A Fog , Rain Light Rain
11:20 PM 39.2 °F - 37.4 °F 93% 30.04 in 1.0 mi Variable 1.2 mph - N/A Fog , Rain Light Rain
11:50 PM 39.2 °F - 39.2 °F 100% 30.04 in 1.0 mi Calm Calm - N/A Fog , Rain Light Rain